Theta_e
287 287 287 287 288 288 288 289 289 290 290 290 290 291 291 291 292 292 294 295 296 297 297 298 298 298 299 298 297 297 298 299 299 300 301 301 301 301 302 302 303 304 305 306 306 306 306 305 305 304 305 304 304 303 302 300 298 298 296 294 294 293 292 290 291 292 292 290 286 286 287 285 287 288 287 288 289 288 287 288 289 289 288 287 289
286 286 286 286 287 287 287 288 289 288 288 289 289 289 290 290 291 291 292 293 294 295 295 296 296 296 296 295 295 295 295 295 294 295 296 296 296 297 298 299 299 299 300 302 303 304 303 302 301 301 302 302 302 302 300 298 298 297 296 295 294 294 293 291 292 292 290 290 289 285 284 285 287 287 287 288 288 287 288 289 289 289 289 288 287
285 285 285 285 285 286 286 286 287 287 287 288 288 289 289 289 290 290 291 291 292 294 294 294 294 294 294 293 294 293 293 293 293 293 293 293 293 293 293 295 296 296 296 296 298 298 299 300 300 299 299 299 299 298 298 298 299 298 296 297 295 292 292 293 293 292 291 287 287 287 285 284 285 284 286 287 288 287 287 288 289 288 289 288 288
284 284 284 284 284 285 285 285 285 286 286 287 287 287 288 288 288 289 290 290 291 292 293 293 294 293 293 293 293 293 292 292 292 292 292 292 291 291 291 291 292 292 293 293 294 295 295 296 296 296 296 295 296 296 295 294 294 295 295 295 296 294 292 292 292 293 290 291 290 288 285 283 284 284 282 283 285 287 287 288 288 288 288 287 285
283 283 284 284 284 284 284 284 285 285 285 285 286 286 287 287 287 288 289 289 290 291 291 292 292 292 292 292 292 291 291 291 290 290 289 290 290 289 289 290 290 290 290 291 291 292 293 293 294 294 294 294 294 294 294 294 294 294 294 294 295 295 295 293 292 292 291 292 292 285 286 286 284 284 281 283 281 285 285 287 287 287 287 286 286
283 283 283 283 283 283 284 284 284 284 284 285 285 286 286 286 287 287 288 288 289 289 290 291 290 290 290 289 288 288 286 287 286 286 287 287 287 288 289 289 289 289 289 289 290 290 291 292 292 292 292 293 293 293 293 293 293 293 293 294 295 295 294 293 292 292 292 292 291 290 290 288 286 285 285 286 281 283 284 283 285 286 284 286 286
283 283 283 283 283 283 283 283 283 283 284 284 285 285 286 286 286 286 286 287 288 288 289 289 288 288 288 287 287 286 285 286 286 287 287 287 288 287 288 288 288 288 288 288 288 289 290 290 291 291 291 291 291 292 292 291 291 292 293 294 294 294 293 291 291 292 292 291 292 291 289 288 287 287 286 284 286 283 281 282 285 284 284 285 286
282 282 282 282 282 282 282 282 283 283 283 283 284 285 285 285 285 285 285 286 286 287 287 288 287 287 287 286 287 286 285 285 286 286 287 287 286 286 287 287 287 287 287 287 287 288 288 289 289 290 290 290 290 290 290 290 290 291 291 292 292 293 292 292 291 291 290 291 292 291 291 290 287 287 287 286 285 283 285 282 282 284 283 284 285
282 282 282 282 282 282 282 282 282 282 283 283 283 283 284 284 284 284 284 284 284 285 286 286 287 286 286 285 285 285 285 285 285 285 285 285 284 284 285 285 285 286 286 286 286 287 287 287 288 288 288 288 288 289 289 289 289 289 289 289 289 290 292 292 291 290 290 290 290 290 289 289 289 288 287 285 285 284 285 285 285 281 281 283 285
282 282 282 282 282 282 282 282 282 282 282 283 282 283 283 283 284 283 283 283 284 283 284 284 284 284 284 283 283 282 283 283 283 283 283 283 282 282 283 283 284 284 284 285 285 285 286 286 286 286 286 287 287 287 287 288 288 287 287 287 287 288 288 289 290 290 290 290 290 290 288 288 287 287 286 285 285 285 284 285 286 285 284 285 284
282 282 282 282 282 282 282 281 281 281 281 281 282 282 282 282 282 282 282 283 283 283 283 282 283 283 282 282 282 281 281 281 281 281 281 281 281 281 281 282 282 282 283 284 284 284 284 285 285 285 286 286 286 286 286 286 287 286 287 286 286 286 285 285 286 287 288 288 288 289 288 289 288 287 287 287 286 285 285 285 285 284 284 285 284
282 281 282 282 282 281 281 281 280 280 280 281 281 281 281 281 282 281 281 281 282 282 282 282 282 282 282 281 281 281 281 281 280 280 280 280 280 280 280 281 281 282 282 282 282 283 283 283 284 284 284 284 284 285 285 286 286 286 286 285 285 284 284 285 283 285 284 284 285 287 288 288 288 288 288 288 287 286 286 285 286 287 286 284 283
281 281 281 281 281 281 280 280 280 279 280 280 280 280 280 280 281 281 280 281 281 281 281 281 281 281 281 281 281 281 281 280 280 280 280 279 279 280 280 280 280 280 281 281 281 281 282 282 282 282 282 283 283 284 284 284 284 284 285 284 284 284 283 282 283 282 282 282 283 284 284 285 285 287 287 287 287 287 285 284 286 286 284 286 284
281 281 280 281 281 281 281 280 279 279 279 279 279 280 280 280 280 280 280 280 280 281 281 280 280 280 280 280 280 280 280 280 280 280 280 280 280 279 279 279 279 279 280 280 280 281 281 281 281 281 281 282 282 282 283 283 283 283 283 283 283 283 283 282 282 282 281 282 281 281 282 283 283 284 284 285 285 285 284 284 284 285 285 284 284
280 280 281 281 281 281 280 280 279 279 279 279 278 279 279 280 280 280 280 280 280 280 280 280 280 280 280 280 280 280 280 280 280 281 279 279 279 279 279 279 279 279 279 280 280 280 280 280 280 280 280 280 281 281 282 282 282 282 282 282 282 284 283 282 282 281 284 282 282 282 283 283 283 283 283 283 284 284 284 284 284 282 283 284 284
281 281 281 281 281 280 280 280 279 279 279 278 279 279 280 279 279 279 280 279 280 280 279 279 279 280 279 279 279 280 280 279 280 280 279 279 279 279 278 278 279 278 279 279 279 279 279 279 279 279 279 280 280 280 280 281 281 281 281 281 281 283 282 282 282 281 281 281 281 281 281 282 283 283 283 283 283 283 283 283 283 282 281 280 283
281 281 281 281 280 280 280 280 279 279 279 279 279 279 279 280 280 280 279 279 279 279 279 278 279 279 278 278 278 278 278 278 278 278 278 278 278 278 278 278 277 278 279 278 278 278 278 279 278 279 279 279 279 279 279 279 280 280 280 280 280 281 281 281 281 281 281 281 281 281 281 282 283 283 282 282 282 282 282 282 282 283 283 281 280
281 281 280 281 281 282 281 280 280 280 279 279 280 280 279 279 279 279 279 280 279 279 279 278 279 279 279 280 279 279 278 278 278 277 278 278 278 278 277 279 278 278 278 279 277 277 277 278 277 277 278 278 278 278 278 279 279 279 279 279 280 280 280 281 281 281 281 280 281 281 281 282 282 282 282 282 282 282 281 282 282 282 282 281 281
280 281 281 282 282 282 281 281 280 280 281 280 281 281 281 280 280 280 280 280 280 280 279 278 278 279 279 278 278 278 278 278 278 277 277 278 277 278 277 277 278 278 278 277 277 277 277 277 276 276 276 276 276 277 277 278 278 278 278 278 279 279 279 279 280 280 281 281 280 280 281 281 282 282 282 282 282 282 282 281 282 282 282 282 282
281 281 281 281 282 282 282 281 281 282 282 282 282 281 281 281 281 280 280 279 279 279 280 279 279 279 279 278 277 277 277 276 276 276 276 276 276 277 277 277 278 278 277 277 276 276 277 277 277 277 276 276 276 276 277 277 277 277 277 277 278 278 278 278 278 279 280 280 280 280 280 280 281 281 281 281 282 282 282 281 281 281 282 282 282
281 281 282 282 282 283 283 283 283 282 282 281 280 280 280 280 279 279 278 278 277 277 277 277 276 276 276 276 276 276 276 276 275 276 276 276 276 277 276 276 276 276 276 276 276 276 276 276 276 276 276 276 276 276 277 276 276 276 276 276 276 277 277 277 277 278 278 278 278 279 279 280 280 280 281 281 281 282 281 281 281 281 281 281 281
281 281 281 281 281 281 281 281 281 280 279 279 279 279 279 278 278 277 277 277 276 277 276 277 276 275 275 275 275 276 275 275 275 275 275 275 275 276 276 276 275 276 275 275 275 275 275 275 275 275 275 275 276 276 276 276 276 276 276 277 277 276 276 276 276 276 277 278 278 278 278 279 279 280 280 280 281 281 281 281 281 281 281 281 282
282 282 282 282 282 282 282 283 282 281 280 280 279 278 279 278 278 277 277 277 276 277 276 276 276 275 276 275 275 275 274 274 275 274 275 275 275 276 276 276 276 276 275 275 275 275 275 275 275 275 275 275 275 275 275 275 275 275 275 275 276 275 275 275 275 275 276 277 277 277 278 278 280 279 280 280 280 280 281 281 281 281 281 281 282
283 283 282 282 282 282 281 281 280 280 280 280 279 279 278 278 278 278 277 278 277 277 277 276 276 276 275 275 276 274 275 274 275 274 274 274 275 275 275 275 275 275 275 275 275 275 275 274 274 274 274 274 274 274 274 274 274 274 274 275 275 275 275 275 275 275 276 276 276 276 277 277 278 278 278 279 279 280 280 280 281 281 281 281 282
282 282 281 280 280 280 280 281 281 280 280 280 280 279 279 279 278 278 278 278 278 277 276 276 275 276 275 275 275 275 275 275 275 275 275 274 274 274 274 274 274 274 274 274 274 274 274 274 274 274 274 274 274 274 274 274 274 274 274 274 274 274 274 275 275 275 277 276 276 276 276 277 277 277 277 278 278 278 279 280 280 281 281 281 282
281 279 279 279 280 280 280 280 280 280 280 280 280 279 279 279 278 278 279 278 277 277 276 276 275 275 275 274 275 275 275 275 275 275 274 274 274 274 274 274 274 274 274 274 274 274 274 274 274 274 274 274 274 274 274 274 274 274 274 274 274 274 274 274 275 275 275 276 276 276 277 277 277 276 277 277 278 278 279 279 279 280 280 281 281
280 279 278 278 278 279 280 280 280 280 279 279 280 279 279 278 278 278 278 278 278 277 276 276 275 274 274 275 275 275 275 275 275 274 274 274 274 274 274 274 274 274 274 274 274 274 274 274 274 274 274 274 274 274 273 273 273 273 273 273 274 274 274 275 275 276 276 276 276 276 277 277 277 277 277 277 277 278 278 278 279 279 280 280 280
278 278 278 279 279 279 279 280 279 279 278 278 279 280 279 279 279 278 278 277 278 277 276 275 275 274 274 275 275 275 275 275 274 274 274 274 274 274 274 274 273 273 273 273 273 273 273 273 273 273 273 273 273 273 273 273 273 273 274 274 275 275 275 275 275 276 276 276 276 276 276 277 277 277 277 277 277 277 278 278 279 279 279 279 279
278 278 278 279 279 279 279 279 278 278 278 278 278 279 278 278 278 278 278 278 277 276 276 275 275 275 275 275 275 275 275 274 274 274 273 273 273 273 273 272 272 272 272 272 272 272 272 272 272 272 272 272 272 272 272 273 273 274 275 275 275 275 274 274 274 275 275 275 276 276 276 276 277 279 280 281 281 281 279 278 279 280 279 279 279
278 278 279 279 280 279 279 278 277 278 278 278 278 278 278 278 278 278 277 278 277 276 276 275 275 274 274 274 274 274 274 273 273 273 272 272 271 271 271 270 270 270 270 270 270 270 270 270 270 270 271 271 271 271 273 276 277 275 275 274 274 274 274 274 274 274 274 274 275 275 276 278 278 279 279 280 281 281 282 281 279 280 279 279 279
278 278 278 279 278 278 277 277 277 277 278 278 278 278 278 278 278 278 278 278 277 276 275 274 274 274 274 274 273 273 273 272 272 271 269 269 270 269 268 268 268 268 268 269 269 269 269 269 269 269 268 269 269 270 274 275 277 277 275 274 273 273 273 273 273 273 272 273 273 274 274 275 276 276 276 278 279 280 281 281 282 282 282 280 279
278 278 278 277 277 277 277 277 277 277 277 278 278 278 278 278 278 278 278 277 276 275 274 273 273 273 272 272 272 271 270 269 268 267 267 266 266 266 266 267 267 267 267 267 267 267 267 268 268 267 267 267 268 271 273 274 276 276 276 274 273 272 272 272 272 272 272 272 272 273 273 274 274 274 275 275 277 278 279 280 280 281 281 282 283
278 277 277 277 278 278 277 278 277 278 278 278 279 278 278 279 279 279 276 275 274 274 272 272 271 271 270 270 269 268 267 266 266 266 265 265 265 266 265 265 265 265 266 266 266 266 266 266 266 266 265 266 266 270 272 274 275 275 276 275 272 272 271 271 271 271 271 271 271 270 270 271 271 273 272 272 272 272 275 276 277 278 279 280 281
278 277 278 278 278 278 278 278 278 279 279 279 278 279 279 278 277 275 275 274 273 272 271 270 269 269 269 269 267 265 266 265 265 265 265 265 264 264 264 264 265 265 264 264 264 264 264 264 265 264 264 265 265 268 272 273 274 274 275 274 271 271 271 270 270 270 269 269 269 268 268 268 269 269 270 270 270 271 271 272 272 272 273 275 277
278 278 278 278 278 278 277 277 277 278 278 278 277 277 277 274 274 274 273 273 271 270 269 269 268 268 267 265 266 265 264 264 264 264 263 263 263 263 264 264 263 263 263 263 263 262 263 263 263 263 263 263 264 269 272 273 273 274 274 274 271 270 269 269 268 268 268 268 268 268 268 268 268 269 269 271 271 271 271 271 271 272 273 274 275
277 277 278 278 278 278 278 278 279 278 278 277 278 276 275 274 272 273 271 270 269 268 268 267 267 266 265 266 265 263 263 262 264 263 262 263 262 262 262 262 262 262 262 262 262 262 262 262 262 262 262 262 263 269 270 271 272 273 274 270 269 268 267 267 267 268 268 268 268 268 268 268 268 269 271 274 274 272 272 271 272 273 273 274 275
276 276 277 277 277 278 278 277 276 276 276 276 275 274 274 272 271 269 269 268 267 266 267 267 266 265 264 264 264 263 262 262 262 262 261 261 262 261 261 261 261 261 261 261 261 261 261 261 261 261 261 261 262 265 269 271 272 273 271 268 268 267 267 266 266 267 267 268 268 268 268 268 268 268 271 274 275 275 271 271 271 271 272 273 273
276 276 276 276 276 276 276 276 275 275 274 273 272 273 272 271 269 267 267 266 266 266 266 264 264 263 264 264 263 261 261 261 260 259 260 261 260 260 260 260 260 260 260 260 260 260 260 261 260 260 261 260 261 265 269 270 271 272 271 268 267 267 266 266 266 267 268 268 268 271 270 268 268 268 272 274 275 274 271 271 272 272 271 271 272
276 277 277 276 276 276 275 274 274 272 271 270 270 270 271 269 267 267 266 265 265 265 264 264 264 264 263 262 261 261 260 259 259 260 259 259 259 259 260 259 259 259 259 260 260 259 259 259 260 260 263 262 261 263 267 269 270 271 269 268 268 267 266 266 266 266 267 267 267 269 271 271 270 271 275 275 276 274 272 271 271 271 270 269 271
276 276 276 276 275 274 272 273 273 272 268 268 268 269 267 267 266 265 265 263 265 264 264 263 263 262 262 260 260 260 259 258 259 259 258 258 259 258 258 259 259 259 259 259 259 259 258 259 259 260 260 260 260 260 262 268 270 271 272 269 268 267 265 266 266 266 266 267 267 267 269 273 274 275 275 276 276 276 273 272 272 270 269 269 271
276 277 278 275 275 276 275 274 272 269 268 267 268 268 267 265 265 265 263 264 264 263 262 262 262 261 260 260 259 258 258 258 257 258 259 258 258 259 258 258 257 258 258 258 258 258 258 258 259 259 259 260 260 260 261 268 270 271 272 271 267 267 267 266 266 266 266 266 267 268 268 272 274 275 276 276 277 277 276 273 273 271 272 273 275
275 275 275 274 273 272 270 269 269 268 267 266 267 267 265 265 264 263 263 263 262 262 261 259 259 259 259 257 256 256 257 257 257 257 257 257 257 257 257 257 257 257 257 257 257 257 257 258 258 259 259 259 261 263 262 266 269 270 271 272 269 268 269 268 267 267 268 268 268 269 269 271 274 275 276 276 277 277 277 274 273 277 278 278 275
275 275 273 274 272 271 271 269 268 266 266 266 265 265 263 262 263 262 263 262 262 261 260 259 259 258 257 256 255 255 256 255 256 256 256 256 256 256 256 256 256 256 256 256 256 257 257 257 257 258 258 259 259 260 265 264 268 271 272 273 273 271 273 271 269 268 268 269 269 270 270 273 275 275 276 277 277 277 276 274 277 277 277 277 277
273 274 274 272 272 270 269 267 266 265 264 264 265 264 262 262 263 263 262 260 259 258 258 257 257 256 255 255 255 255 255 255 255 255 255 255 255 255 255 256 256 256 256 256 256 256 256 256 256 257 258 259 259 260 263 267 267 271 272 273 273 274 274 271 270 269 270 270 270 269 270 274 275 276 276 277 277 277 275 277 278 278 278 277 274
275 273 272 272 272 269 268 265 265 263 262 260 261 263 261 260 261 262 260 258 257 256 255 255 254 254 253 254 253 253 253 253 254 254 254 255 255 254 255 255 255 255 255 255 255 255 255 255 256 257 258 259 260 261 261 264 269 271 272 273 273 274 274 274 271 270 270 270 272 275 275 276 276 276 277 277 276 275 276 276 277 277 276 273 271
271 270 269 270 268 266 266 265 263 261 261 260 259 261 260 259 261 260 259 257 255 253 254 253 252 252 253 252 253 254 254 254 254 255 255 255 255 255 255 255 255 255 255 255 255 255 255 256 257 258 259 261 262 263 264 265 267 268 269 271 272 273 273 274 274 272 274 276 276 276 276 276 275 274 272 270 270 270 274 276 277 276 272 271 271
271 271 268 267 265 266 265 264 263 261 260 259 258 258 258 259 259 259 258 255 252 253 254 253 253 253 253 252 252 253 254 254 253 254 255 255 255 255 255 255 255 254 254 254 255 256 256 257 258 260 261 262 263 264 265 266 267 267 267 268 269 269 271 272 270 269 271 270 270 271 271 274 274 275 275 275 275 275 273 272 271 270 269 269 269
270 268 267 265 266 267 265 264 264 262 260 259 258 258 257 257 257 258 255 253 254 254 253 253 252 251 253 252 253 256 256 255 255 254 254 254 254 255 254 255 254 255 255 255 256 257 258 259 259 260 262 264 265 265 266 266 267 267 268 269 269 270 269 269 269 269 269 269 269 272 272 271 270 269 269 269 268 268 269 269 269 269 269 269 271
268 265 265 268 267 265 264 263 263 261 259 258 256 256 255 256 258 254 253 253 254 254 254 251 251 252 252 254 254 254 254 254 254 254 254 255 255 255 255 256 257 257 257 257 257 258 260 261 262 264 264 264 265 265 266 270 270 273 271 270 270 270 270 271 272 275 273 272 272 270 268 267 267 267 267 267 267 267 268 268 268 268 269 269 269
266 264 264 263 262 264 262 261 261 260 258 258 256 255 254 257 255 254 253 252 253 253 251 251 252 251 252 252 252 253 251 253 253 253 253 254 258 263 262 260 260 265 268 269 269 266 267 267 267 267 267 266 265 267 272 273 273 274 274 275 274 275 275 274 275 276 274 271 270 269 269 269 269 268 267 267 267 267 266 267 267 270 270 270 270
263 262 261 262 261 260 259 259 259 258 257 257 256 255 254 254 256 255 254 253 252 253 252 252 251 252 253 253 253 253 253 253 253 254 253 254 254 256 262 265 266 267 268 269 270 271 271 271 269 267 268 271 272 272 272 273 273 274 274 274 274 274 274 275 275 271 269 268 268 266 266 266 265 265 265 265 266 266 267 267 268 269 270 270 270
Wind_Speed
4 5 7 7 9 8 8 7 7 7 11 11 12 12 12 10 11 12 9 9 9 9 8 7 7 6 9 10 8 6 7 8 10 9 10 9 11 11 11 10 10 10 9 9 8 8 7 5 5 5 4 5 5 3 3 3 4 3 3 2 1 2 1 2 2 3 1 3 3 4 6 3 4 3 5 5 6 5 3 5 6 6 6 5 5
5 8 9 8 9 10 9 8 9 13 11 11 11 10 9 11 12 9 9 10 10 8 6 8 6 5 7 6 8 7 9 10 9 9 9 9 12 12 11 10 11 11 10 10 9 8 7 7 6 5 5 4 4 4 4 3 4 3 2 2 2 2 2 1 1 3 0 3 4 5 4 5 5 4 5 7 6 5 5 5 6 6 7 6 4
5 6 7 8 9 9 8 8 8 7 8 9 8 10 11 11 9 9 9 9 9 8 8 7 5 5 6 4 5 7 6 6 8 7 9 10 11 11 11 11 11 10 10 9 9 9 8 8 7 6 6 4 5 5 3 4 3 3 4 2 2 2 0 0 2 2 1 2 2 2 4 5 5 3 5 7 7 6 5 6 6 5 8 5 5
6 6 7 7 6 7 7 8 7 7 8 9 10 9 8 9 9 10 10 9 9 9 7 5 5 5 6 7 9 9 6 5 9 11 11 13 13 11 11 10 10 10 10 10 8 9 9 8 7 7 7 5 5 5 4 4 3 2 2 2 2 2 1 1 3 2 1 0 5 2 2 1 8 4 4 6 5 7 6 9 5 7 6 4 3
4 6 6 6 7 7 7 6 6 9 9 10 9 8 7 9 9 9 10 9 9 10 10 6 6 6 4 5 5 7 9 10 11 11 10 9 10 12 10 10 10 10 10 10 9 8 8 8 8 7 8 7 7 7 6 6 4 2 1 0 1 2 3 2 0 3 4 4 2 1 4 2 4 5 5 6 2 2 5 6 5 6 6 4 5
3 4 4 4 5 5 7 9 10 9 10 8 7 7 8 9 10 10 10 10 10 10 9 9 10 9 10 10 10 9 10 11 11 9 9 10 8 5 10 10 10 10 10 10 10 9 9 8 7 8 9 9 8 7 7 8 7 6 4 2 2 1 2 3 3 1 5 5 3 2 3 6 6 3 5 10 3 4 4 2 4 5 4 5 5
4 4 4 5 6 7 8 9 8 8 7 5 6 7 8 8 8 10 9 9 9 9 10 9 10 9 9 8 7 8 9 6 4 5 6 6 8 10 8 10 10 10 10 10 10 10 9 9 8 8 8 8 7 8 9 8 6 6 6 6 4 3 1 2 4 4 1 3 5 6 4 2 1 2 7 4 12 4 1 3 5 4 5 5 7
2 3 4 4 4 5 6 5 5 5 4 4 6 6 9 8 9 10 9 10 9 8 10 9 9 8 10 10 9 9 8 7 6 6 6 7 11 10 9 9 10 10 10 10 10 10 9 9 9 9 8 8 7 7 7 6 7 7 6 5 5 5 3 2 4 4 3 4 1 4 5 4 3 3 3 7 8 11 13 3 3 6 4 6 8
2 3 3 3 4 4 4 4 3 4 4 5 6 6 6 7 9 10 12 10 10 11 11 11 10 8 8 7 10 7 7 6 5 7 8 8 11 9 10 9 9 10 10 10 10 10 9 8 9 9 9 8 7 7 7 6 7 7 8 8 7 6 5 4 3 4 4 4 5 4 3 3 3 4 3 2 6 9 13 10 12 3 3 5 8
1 2 2 3 3 3 3 2 4 4 4 5 5 5 6 6 10 12 12 10 9 10 10 11 10 8 9 9 9 7 6 6 7 8 7 6 9 8 7 8 7 8 9 10 11 10 10 10 9 9 8 7 7 7 7 8 7 6 5 5 5 6 5 5 5 5 4 5 4 4 4 5 4 3 2 4 5 8 13 11 11 12 14 6 5
1 1 1 2 1 2 3 4 4 4 4 5 6 6 5 7 9 13 9 8 9 9 9 10 9 8 8 7 7 6 5 5 8 8 7 8 8 7 7 6 6 7 7 8 9 10 9 9 9 9 8 8 8 8 7 6 6 5 5 5 6 6 5 5 5 4 4 5 5 4 4 4 5 5 6 4 5 6 7 9 7 8 10 14 5
2 2 2 2 3 4 3 5 4 4 4 6 5 5 7 7 9 12 9 8 8 8 9 9 8 8 7 6 7 5 5 6 8 8 6 7 6 7 5 6 7 6 7 7 9 9 8 8 7 7 8 8 8 6 6 6 6 5 6 6 6 4 4 5 4 5 5 4 4 4 4 4 4 5 5 5 6 8 7 11 9 9 10 8 6
3 3 3 2 3 2 3 3 4 4 4 4 4 4 5 6 7 12 10 8 8 8 9 8 9 8 7 6 6 5 6 7 6 7 5 6 6 7 8 8 7 9 9 9 9 9 7 8 8 8 8 7 6 6 6 6 6 6 6 5 5 5 4 4 5 4 3 3 5 5 3 4 5 5 5 5 5 6 6 10 10 7 12 12 5
4 4 3 3 3 2 2 3 3 3 4 4 4 4 4 6 6 11 8 6 6 8 7 8 8 7 6 6 6 5 6 6 6 6 5 5 5 6 6 6 7 6 6 7 6 6 6 5 6 6 6 6 6 6 6 5 6 6 5 6 5 4 3 4 3 3 3 3 2 4 4 5 5 5 5 5 6 6 6 7 9 8 8 12 6
4 4 4 4 3 4 4 4 3 4 4 4 4 4 4 6 7 9 9 6 7 6 6 7 6 6 5 4 5 4 5 5 5 4 4 5 5 6 6 6 6 5 6 4 5 6 6 6 6 6 7 7 6 7 7 6 6 5 5 5 4 5 5 4 4 3 4 4 4 3 4 5 5 5 4 5 5 5 6 7 6 11 12 10 11
4 4 4 4 4 4 3 4 4 4 4 4 4 4 5 5 6 6 7 5 5 5 5 5 5 4 4 5 4 3 3 3 3 3 3 4 4 5 5 5 5 4 5 6 6 6 7 7 6 7 6 7 7 6 7 7 7 7 6 5 6 3 5 6 4 4 5 4 4 4 3 5 5 5 5 5 5 5 6 5 5 7 8 14 10
6 6 6 5 4 4 4 4 4 4 4 4 4 4 5 5 6 6 5 4 4 4 4 4 4 5 4 4 4 4 4 4 4 4 4 4 4 4 5 3 3 3 4 3 5 5 5 5 6 7 7 7 6 6 6 6 6 7 7 8 8 6 5 5 5 5 5 4 4 4 4 6 6 4 4 5 6 5 5 5 5 7 7 9 12
7 5 4 5 5 5 5 4 4 4 4 4 4 3 4 4 5 5 5 5 3 4 4 4 4 4 4 4 4 3 4 4 4 4 4 5 5 5 3 4 4 2 2 3 4 4 4 4 4 5 5 5 6 6 6 7 7 7 6 6 6 6 7 7 6 5 6 4 5 5 5 6 6 5 6 5 5 6 6 6 6 6 6 9 9
6 7 6 7 7 6 6 5 4 4 3 3 3 3 3 3 3 4 4 3 3 2 2 2 2 3 3 4 4 4 4 4 4 5 5 5 5 5 5 4 4 6 7 8 8 7 6 6 4 5 4 4 4 4 4 5 5 7 7 8 7 7 7 8 7 6 7 6 6 6 6 6 6 6 7 6 5 5 6 6 6 6 6 8 9
8 7 7 7 6 6 6 6 5 4 3 2 2 2 2 1 2 2 2 2 2 3 3 4 3 3 2 2 2 2 3 4 4 4 4 3 2 3 4 5 5 5 5 5 6 6 7 8 7 7 7 7 6 4 4 5 4 4 5 6 7 7 8 8 9 7 6 7 8 9 8 7 6 5 7 6 7 6 6 6 6 6 7 7 8
8 8 8 8 7 6 6 5 4 3 3 3 3 3 3 2 2 2 4 2 3 2 3 3 3 3 3 3 2 2 1 1 2 1 3 2 3 3 3 3 4 5 4 5 5 5 6 6 7 7 8 9 9 10 8 7 7 7 6 5 5 5 6 7 7 10 7 6 7 8 10 9 6 6 7 7 7 7 6 6 6 6 7 7 7
9 8 7 7 6 5 4 4 4 4 4 4 4 3 3 4 4 3 2 3 4 3 4 3 2 3 3 3 2 1 1 1 2 2 4 3 4 4 3 4 4 4 3 4 4 4 4 4 5 6 6 6 6 7 8 8 9 11 11 7 8 8 8 8 6 8 8 6 8 9 10 9 6 8 9 8 7 7 7 7 7 7 8 8 7
9 8 7 7 6 6 6 6 6 6 6 5 4 4 5 5 4 4 4 4 4 4 4 4 4 4 3 2 1 1 2 3 4 3 4 4 4 4 4 4 5 4 4 4 4 5 5 5 5 5 5 5 5 6 5 5 6 7 9 10 9 10 10 11 11 11 9 7 8 9 10 8 6 9 9 9 7 8 7 8 10 7 8 9 7
4 4 4 5 6 5 5 6 6 6 6 7 6 5 5 5 5 5 5 6 5 5 5 4 4 3 2 2 1 1 2 2 3 2 3 3 3 4 4 4 4 4 5 4 4 4 4 5 5 6 5 5 6 5 5 4 5 6 8 9 9 9 9 10 10 11 12 11 10 11 10 7 6 9 10 10 8 7 8 9 10 9 8 9 8
5 6 6 5 6 8 8 8 8 7 7 6 7 6 5 6 5 6 7 7 6 5 5 4 4 4 2 1 1 0 1 1 1 1 2 2 3 3 3 4 4 4 4 4 4 3 4 4 6 6 7 6 6 6 6 6 5 5 7 8 8 8 9 10 10 11 10 11 12 12 13 11 8 10 10 9 8 9 9 9 10 10 9 8 8
6 5 5 9 9 6 6 8 8 8 8 7 6 5 5 6 7 6 7 6 7 5 5 5 4 4 3 1 1 1 1 1 1 2 3 3 3 3 4 4 4 5 5 4 5 5 5 7 6 6 6 6 6 5 6 7 7 7 7 8 8 9 9 10 10 11 10 10 10 12 13 12 11 11 12 11 9 10 10 10 11 11 10 9 10
7 6 4 2 5 10 10 9 9 8 7 6 7 7 7 7 7 6 6 7 7 6 5 5 4 4 3 2 1 1 0 1 2 3 3 3 4 4 4 5 4 4 6 7 6 6 6 6 7 7 7 7 7 6 7 7 6 6 8 9 10 10 10 10 10 11 11 11 11 11 12 12 12 12 13 13 12 11 10 12 11 11 11 10 11
4 5 7 10 10 9 9 10 8 7 6 6 7 8 9 8 8 7 6 6 5 5 5 5 4 3 3 2 1 1 1 2 2 3 3 3 3 4 4 4 4 5 6 6 7 8 7 6 7 7 7 7 8 7 6 6 7 8 9 9 10 10 11 11 10 11 11 11 11 11 11 12 13 13 13 13 13 12 11 12 11 10 10 11 11
6 8 8 9 10 11 11 8 8 6 8 7 7 7 6 6 6 7 6 8 6 5 5 4 4 3 2 2 2 2 2 2 1 1 2 3 3 3 3 4 4 5 5 5 6 6 9 9 8 7 8 7 7 8 6 7 10 11 9 11 11 12 12 12 12 11 11 10 10 10 11 11 13 19 23 22 20 19 14 13 13 11 11 11 11
8 9 11 12 12 10 8 7 7 8 8 7 7 7 8 8 8 8 7 7 5 5 5 4 4 3 2 1 1 1 1 2 2 3 3 3 3 4 4 4 4 4 4 5 5 6 7 8 10 10 8 8 8 6 10 19 17 12 12 11 11 11 11 11 12 13 13 11 11 11 13 23 26 26 25 25 26 26 25 19 15 13 12 11 12
9 8 9 9 7 6 5 7 8 8 9 9 8 8 8 8 8 8 8 6 6 5 4 4 4 3 3 2 2 1 1 2 2 3 3 4 6 5 5 6 5 6 6 6 6 7 6 7 8 9 10 9 8 8 19 19 20 22 16 13 12 13 13 13 10 12 11 14 11 11 12 18 21 22 21 26 27 27 26 26 27 27 23 18 14
8 8 6 6 7 7 8 8 8 8 8 8 9 8 7 9 9 8 7 4 5 4 5 4 4 3 3 3 2 2 2 2 3 3 3 4 4 5 5 6 6 8 8 6 7 6 7 7 8 8 8 8 9 13 19 20 21 22 20 15 14 12 13 14 14 13 13 13 14 14 13 11 10 12 13 15 18 23 25 26 27 26 26 28 26
8 7 7 8 9 9 9 8 6 8 8 10 10 7 9 10 10 7 3 4 5 6 6 5 3 3 3 3 2 2 1 2 2 3 3 4 4 5 5 6 7 6 6 6 8 8 8 7 8 10 10 9 8 14 18 21 21 22 22 20 14 14 14 15 15 16 16 15 15 15 15 13 12 20 17 15 16 17 23 29 30 31 31 30 27
5 6 7 7 5 5 6 8 9 9 10 9 7 9 10 5 4 4 6 5 7 5 6 5 3 3 3 3 2 2 2 2 3 4 4 5 5 6 5 4 5 6 6 7 6 7 7 7 8 9 10 10 9 14 20 21 22 23 23 21 14 15 15 16 16 15 15 15 15 15 15 15 13 13 13 14 14 16 15 15 14 14 14 20 26
6 5 5 6 7 6 5 5 7 9 7 5 6 7 5 3 4 6 5 7 5 6 5 4 4 3 3 2 3 2 2 3 3 4 4 5 5 6 6 6 6 6 8 8 8 9 7 6 7 8 10 11 9 18 21 23 24 24 24 21 15 14 14 14 14 14 15 15 15 14 15 16 15 14 13 16 17 17 15 13 14 14 14 14 12
6 7 7 6 7 9 9 10 8 6 6 6 8 5 6 5 4 7 6 5 6 5 5 3 4 3 2 2 3 3 3 3 4 4 4 6 5 5 7 7 6 6 5 6 7 5 8 8 7 8 10 12 10 18 22 23 25 24 26 16 13 14 14 14 14 14 14 14 14 14 14 15 15 16 19 25 22 18 16 16 16 14 13 13 15
5 6 7 8 7 7 7 4 2 3 4 5 4 5 6 6 6 5 5 5 5 4 4 4 3 2 3 3 3 3 3 4 4 5 5 5 6 6 5 4 7 7 7 7 7 7 7 8 9 8 10 12 10 14 21 23 24 26 20 12 13 12 12 14 15 14 14 14 14 14 14 15 17 17 21 26 26 25 18 16 15 17 15 15 13
5 4 4 3 4 3 2 3 3 0 0 1 4 6 7 7 6 5 5 5 4 4 3 3 3 2 3 3 4 2 3 4 4 4 5 5 4 4 4 4 6 8 9 7 7 8 7 6 8 10 8 12 13 15 22 24 25 24 21 14 12 11 13 13 14 14 13 13 15 24 22 18 18 19 25 28 28 24 17 16 15 15 16 14 13
8 8 8 7 5 4 3 3 3 4 1 3 4 6 7 6 5 4 4 4 4 4 3 3 3 3 3 2 2 2 2 3 4 4 4 5 5 5 5 4 5 6 8 7 7 8 8 7 7 9 14 15 13 15 21 23 25 24 19 12 11 10 11 13 13 13 14 15 16 16 25 24 23 24 32 30 29 24 17 14 14 16 17 16 11
7 5 5 4 4 5 3 4 6 5 4 4 5 5 5 5 4 3 4 3 3 4 3 4 4 3 2 1 2 2 3 3 5 5 4 4 4 5 5 5 6 5 8 7 7 8 9 9 7 9 9 9 12 13 14 25 24 24 24 15 11 11 12 14 13 12 13 12 13 12 17 25 31 32 30 30 28 28 21 16 13 12 13 17 11
7 7 4 4 5 6 7 8 6 7 6 5 6 6 5 4 4 4 3 3 4 4 4 4 3 2 2 2 2 2 4 4 4 5 5 4 4 6 6 6 7 7 7 8 8 8 9 9 7 8 8 9 9 13 14 23 24 24 25 21 12 12 12 13 13 13 11 11 10 11 10 20 28 29 30 31 31 29 27 20 16 14 15 18 21
1 2 4 4 4 4 3 4 5 7 6 6 6 7 5 5 4 4 3 4 4 4 4 2 1 0 1 2 3 4 3 4 4 4 6 6 4 5 6 7 6 7 9 10 8 8 9 9 8 7 8 9 11 17 15 20 24 25 24 27 16 12 14 14 14 12 11 10 10 10 10 20 31 31 31 31 32 30 31 20 17 26 31 31 22
5 3 4 6 6 7 7 7 6 5 5 4 6 6 5 4 5 4 4 4 4 4 2 1 0 1 1 3 3 4 5 4 5 4 5 7 5 5 6 6 7 8 9 10 8 8 8 10 9 7 7 8 10 11 19 18 23 25 27 26 27 22 27 18 14 13 11 13 12 14 15 27 30 31 31 32 32 34 28 19 29 30 30 32 26
5 5 7 7 6 5 5 4 5 4 4 4 7 7 5 5 5 4 5 4 3 2 2 1 1 1 2 3 4 4 4 4 5 5 5 6 7 6 6 6 7 7 8 9 7 7 8 9 10 11 8 7 9 9 14 21 21 26 27 28 27 28 28 18 16 14 13 14 14 14 16 29 33 33 33 32 31 29 21 28 29 30 30 28 16
9 8 6 7 10 10 7 6 4 4 3 4 3 8 6 6 3 5 4 4 3 2 2 1 2 3 4 4 4 4 4 5 5 5 5 6 7 5 7 5 5 7 7 8 8 6 7 9 10 11 11 9 9 9 10 14 23 26 28 28 28 29 28 29 20 14 15 15 22 33 35 34 32 33 33 32 25 22 26 27 29 29 28 14 11
4 3 6 6 4 5 7 8 5 4 4 3 4 6 7 4 4 4 4 4 4 3 1 2 3 3 5 4 4 5 5 5 6 5 5 6 6 6 7 7 6 7 7 7 8 7 7 8 10 10 11 11 11 10 11 11 13 17 18 24 29 29 29 30 28 23 30 35 34 34 37 36 32 26 19 14 12 13 22 28 31 29 15 10 9
10 9 7 6 6 7 8 9 9 5 5 4 4 3 4 4 5 5 4 4 4 3 3 3 4 4 4 4 4 5 5 5 5 5 5 5 5 6 7 7 6 7 7 7 8 7 8 8 10 11 12 12 11 10 11 12 11 11 11 14 16 16 23 25 19 15 19 18 22 24 21 27 25 31 31 28 25 24 19 16 12 11 10 11 11
6 5 7 6 7 9 9 9 10 8 5 5 4 4 4 4 4 5 4 4 4 4 4 4 5 4 4 4 5 6 6 5 5 5 5 5 6 6 7 8 7 7 7 8 7 8 9 10 10 10 12 11 11 9 9 9 10 10 12 11 11 11 10 10 12 12 13 15 16 20 22 15 13 13 13 10 10 11 12 13 12 11 12 13 16
7 7 9 12 10 9 9 9 7 6 6 5 5 4 4 4 4 4 5 4 4 4 4 4 4 4 5 4 5 5 5 5 6 5 6 6 7 7 8 9 9 8 9 9 8 8 10 10 9 10 10 8 10 10 10 15 19 23 20 17 13 12 12 11 15 26 20 13 10 9 7 9 9 11 10 10 10 10 11 12 14 13 12 12 12
5 5 6 5 6 8 8 8 6 6 7 6 5 4 3 3 3 4 4 5 4 4 4 5 4 4 5 4 4 5 4 5 6 6 6 7 10 16 12 9 7 13 19 20 18 11 10 10 8 7 7 10 9 12 24 29 27 27 28 30 28 29 28 23 26 32 22 14 11 10 10 9 9 9 9 9 10 9 10 10 11 14 14 11 12
7 7 6 8 7 6 7 7 7 6 6 6 5 4 3 3 4 4 5 5 4 4 4 4 4 4 5 4 4 5 5 5 5 6 6 7 7 8 15 20 19 17 18 19 19 22 23 22 14 11 11 21 25 27 27 26 27 26 27 28 27 28 29 28 28 20 14 10 11 10 11 10 10 9 10 10 10 10 11 11 11 11 11 13 14
Wind_Direction
343 3 11 7 3 2 3 4 355 18 26 23 29 26 26 22 28 28 11 18 30 27 30 30 44 56 58 60 67 43 47 51 49 38 46 42 36 36 36 34 30 30 27 30 34 42 44 41 50 54 77 91 90 71 54 43 33 36 35 18 138 173 255 65 63 111 78 306 299 289 298 282 269 270 267 265 253 248 254 263 263 272 266 267 263
14 20 13 13 9 6 8 9 8 27 15 24 29 25 26 27 33 24 18 23 25 23 32 46 30 48 88 80 84 58 51 50 47 36 38 42 39 37 34 32 34 33 24 23 28 32 36 36 39 36 42 61 89 100 87 100 96 85 56 12 21 350 336 73 196 131 58 240 303 328 325 300 260 246 253 253 251 250 244 239 253 252 262 256 275
23 24 20 18 10 10 11 8 16 22 22 27 20 31 30 31 30 29 24 24 21 19 33 38 35 35 61 50 66 84 63 74 71 54 45 46 42 38 34 32 32 33 28 27 30 22 26 32 28 24 32 37 49 51 71 71 89 97 102 88 360 33 29 138 207 257 299 73 124 354 305 344 334 336 276 261 254 244 235 241 242 246 251 248 253
31 22 21 13 17 17 16 17 11 19 25 26 24 27 30 33 34 35 31 27 23 18 20 15 39 56 61 72 65 70 71 55 60 48 40 40 38 35 35 31 31 34 29 28 28 29 25 24 18 27 26 24 36 36 33 42 52 71 86 105 99 329 352 294 182 228 135 120 300 233 265 33 317 294 313 294 244 236 228 239 234 243 251 266 266
30 27 21 19 22 21 20 15 15 31 26 26 22 23 30 33 36 42 39 33 28 22 19 11 25 31 28 55 57 54 40 38 41 35 36 40 42 34 28 29 32 34 29 30 32 28 27 24 24 17 26 19 28 35 31 21 25 39 63 82 139 203 274 276 196 198 228 237 203 311 313 287 232 277 338 282 345 309 259 247 257 253 264 271 268
52 38 23 20 26 21 25 23 27 24 24 14 15 24 31 34 35 39 43 39 32 27 23 37 41 40 38 39 40 44 46 34 35 31 29 34 36 31 34 32 31 34 30 28 30 30 31 26 27 31 23 16 17 28 31 26 22 21 13 23 324 298 282 314 300 243 230 246 239 246 193 265 303 276 348 294 326 221 270 305 262 258 263 264 261
27 36 29 34 19 34 29 28 19 26 11 359 20 30 36 41 43 45 45 41 34 35 34 44 51 49 54 59 59 56 66 44 41 40 52 45 48 40 36 34 32 33 29 30 27 28 32 31 32 35 34 28 20 28 28 21 14 20 6 17 3 355 16 280 288 295 304 252 245 245 247 214 133 325 273 333 297 318 308 274 270 254 243 243 253
41 39 35 33 34 39 40 23 25 18 353 9 31 31 40 42 49 49 48 46 36 35 45 44 61 54 56 55 53 53 57 60 40 45 47 50 52 41 39 34 32 34 32 30 29 29 28 30 30 33 34 27 28 32 27 12 17 17 24 18 14 17 3 319 305 324 300 305 267 273 270 256 213 249 231 255 284 299 293 282 250 268 254 246 246
73 63 40 28 31 30 27 38 13 27 21 34 33 33 37 45 53 54 49 45 35 37 45 41 50 55 62 64 66 48 54 51 50 47 49 41 56 43 45 37 32 30 32 31 30 30 31 30 30 31 30 22 22 21 19 20 25 22 16 17 16 6 10 348 340 310 324 296 319 305 299 278 261 228 227 187 254 281 282 292 290 308 263 255 258
53 69 60 44 28 27 15 24 36 27 25 37 39 40 44 52 58 58 49 42 35 40 45 46 45 48 58 56 68 57 48 50 52 51 47 41 57 47 44 42 35 33 28 28 27 24 28 28 32 32 29 26 27 20 14 14 12 17 19 23 24 22 9 14 359 331 329 319 312 306 309 313 316 299 225 243 256 223 265 277 293 298 293 265 230
119 68 41 52 26 38 27 58 38 28 25 40 45 45 48 57 63 63 51 48 42 45 48 50 48 47 54 52 58 66 52 59 63 49 42 45 51 43 38 37 39 40 31 31 30 22 23 26 26 25 26 25 24 21 18 12 4 3 2 17 32 30 13 14 8 351 342 336 330 322 301 292 286 290 297 281 264 285 289 272 266 260 264 289 265
170 133 105 62 56 40 42 53 43 37 43 45 46 46 54 57 66 72 54 50 50 50 56 53 54 51 53 52 58 49 55 60 63 62 45 55 49 46 31 38 31 33 33 32 27 19 22 22 22 24 24 19 19 12 14 11 5 8 14 18 16 20 26 24 15 360 355 345 328 326 320 315 304 291 289 282 286 285 282 288 289 297 280 245 273
176 167 150 123 109 93 72 66 61 54 64 60 55 62 67 69 72 80 62 52 53 52 59 56 56 51 48 50 51 47 49 54 57 61 42 54 44 44 38 39 23 28 20 23 16 14 16 18 17 17 14 14 10 13 9 10 9 13 16 15 18 19 10 13 12 343 330 329 311 314 305 301 288 293 298 288 286 282 280 287 285 282 279 289 273
191 180 173 165 161 152 146 123 109 100 84 81 81 80 79 78 75 81 76 58 59 59 57 61 56 52 48 50 46 45 47 50 46 57 47 52 47 51 47 42 38 32 18 22 1 6 17 16 14 12 11 6 7 7 9 6 9 10 8 16 6 350 5 11 5 332 308 287 277 298 310 301 286 283 280 290 284 289 283 277 294 287 277 286 284
189 187 184 180 183 169 148 149 143 127 120 108 99 97 93 85 82 84 80 58 64 62 60 61 55 48 50 50 52 48 55 51 49 53 52 54 43 56 49 40 43 21 24 3 9 14 10 12 11 11 4 3 2 3 2 3 4 359 7 359 358 349 353 356 355 353 333 323 318 296 289 286 275 273 271 266 262 263 268 279 288 295 296 286 291
191 187 193 197 182 174 159 156 155 140 133 124 108 109 98 97 92 88 90 83 72 70 64 67 58 56 46 48 41 47 51 68 59 51 52 64 58 61 49 45 34 27 14 19 12 17 10 7 7 6 1 1 0 360 358 359 354 355 350 358 351 345 346 344 334 331 318 309 290 287 294 282 271 267 261 257 253 252 261 268 264 272 282 294 290
197 194 192 188 182 176 172 172 163 146 133 127 126 124 116 105 98 91 83 76 70 68 71 64 63 63 45 48 40 41 41 42 43 34 39 43 55 47 51 42 45 34 21 24 14 13 12 7 1 355 357 356 353 354 352 352 351 350 347 345 346 338 339 329 324 327 310 308 303 292 274 279 283 273 264 259 256 255 247 247 244 252 260 271 292
203 203 194 187 182 179 184 189 178 163 153 140 129 119 96 102 105 100 88 84 61 65 61 55 63 66 56 52 51 55 46 34 30 27 14 32 23 29 23 23 18 7 31 19 25 12 10 6 4 352 346 348 346 344 346 345 345 345 339 335 330 334 334 329 328 320 310 305 297 301 292 288 285 289 273 260 255 251 252 244 242 242 232 255 268
210 206 195 195 190 187 186 188 196 187 181 168 143 93 75 69 68 90 99 98 93 79 89 76 84 86 75 60 53 44 40 41 32 32 27 30 19 13 15 358 355 5 12 9 7 5 2 359 359 348 343 337 332 332 333 338 341 338 336 333 331 336 332 324 319 325 315 317 308 301 292 281 282 285 287 283 267 256 250 245 247 235 239 237 257
205 201 201 195 193 189 187 186 186 188 184 178 127 83 105 90 85 69 49 48 65 81 88 82 75 102 119 104 57 69 48 54 40 41 36 33 5 5 3 9 360 0 9 6 5 358 354 350 350 348 343 343 343 344 344 338 333 325 316 323 317 327 326 323 316 314 311 311 308 304 294 286 287 286 283 280 278 266 256 255 242 240 245 236 244
204 203 197 192 192 190 188 186 183 181 171 143 140 165 175 125 137 129 134 139 108 115 111 141 138 128 105 99 91 89 84 101 83 60 51 27 14 11 11 358 357 1 4 360 358 351 345 344 340 343 343 340 341 341 347 345 343 335 333 318 313 316 310 305 304 307 310 305 297 291 294 293 290 286 278 278 278 273 269 256 252 245 247 240 233
210 204 191 188 190 188 189 187 177 164 178 173 190 167 152 171 187 177 161 155 146 178 150 161 147 146 148 168 177 172 137 73 59 38 29 17 8 7 357 2 10 336 2 345 342 337 335 329 333 328 329 329 328 332 336 343 338 336 331 334 329 323 315 308 302 297 298 298 295 294 290 289 290 284 284 278 267 273 269 267 259 244 248 250 224
207 198 193 189 187 188 187 185 183 185 188 190 186 182 185 191 190 188 164 192 175 182 182 171 165 158 166 176 129 62 40 42 34 12 15 0 358 351 356 3 347 341 343 344 335 334 330 327 324 319 317 320 321 323 328 329 323 322 320 321 323 322 319 317 317 307 302 298 293 288 284 287 291 286 282 279 276 272 268 263 265 249 250 252 243
209 193 187 189 185 180 178 188 190 194 194 196 193 195 193 188 191 178 184 192 202 196 193 178 170 167 163 91 67 28 48 34 33 2 5 341 340 337 337 346 329 330 330 326 331 319 323 325 318 316 317 315 320 319 317 311 306 310 310 307 308 307 305 304 301 304 308 309 302 297 290 285 281 278 280 283 279 270 267 270 268 265 253 256 250
204 197 192 181 185 187 192 190 193 197 199 196 195 193 187 195 186 186 196 194 197 199 186 188 174 171 179 140 151 118 77 20 16 5 354 336 333 326 330 329 326 327 322 322 318 317 313 317 319 316 316 316 315 314 311 307 304 297 293 294 293 292 290 289 289 290 293 297 297 294 297 299 291 283 279 275 274 272 272 271 269 268 266 261 260
209 194 181 197 196 187 191 197 198 199 196 194 192 186 192 191 196 192 192 194 207 193 197 178 184 169 189 178 173 99 73 11 5 5 1 351 346 353 347 342 342 334 332 329 325 333 331 322 322 315 311 311 312 311 304 304 305 299 290 285 284 283 283 281 283 282 282 281 283 287 289 293 294 289 288 285 278 273 271 267 269 272 270 267 266
210 200 196 178 196 202 200 199 201 198 193 190 186 192 193 195 204 208 203 196 199 192 195 186 186 182 176 181 150 119 80 15 7 0 359 3 3 356 356 348 342 338 332 331 333 330 329 322 318 319 318 318 319 313 311 308 305 296 291 290 289 285 280 280 278 278 277 276 275 278 282 284 285 286 286 287 289 284 277 273 265 268 267 268 269
183 179 188 202 208 204 203 205 200 200 194 192 193 190 192 196 204 210 211 209 204 190 195 194 181 179 175 140 122 117 57 19 6 9 5 4 3 357 354 339 340 337 333 333 332 330 324 324 317 319 318 321 317 317 315 316 310 305 301 296 293 293 292 289 285 281 279 277 276 275 274 277 279 281 283 285 285 286 284 279 275 270 267 266 263
185 202 203 206 209 208 207 201 200 193 197 198 193 200 201 210 215 215 207 215 199 186 196 191 182 162 128 98 48 29 33 16 7 12 18 12 359 347 336 334 327 326 327 327 327 328 325 322 320 318 323 323 320 320 325 324 318 312 309 305 303 299 297 295 291 284 278 275 273 273 273 273 275 279 279 282 283 284 286 286 282 277 272 267 267
203 207 209 210 212 210 202 194 196 198 198 196 199 202 205 206 217 219 214 220 168 199 187 183 164 141 102 84 66 35 13 5 18 10 18 359 349 340 332 331 328 324 326 324 329 330 322 320 322 323 325 325 320 320 321 320 318 316 314 310 303 297 295 294 294 294 291 285 280 280 282 286 288 287 287 286 286 286 284 282 283 284 279 272 265
216 219 219 217 217 211 198 198 204 199 200 199 203 208 208 215 221 217 216 207 178 186 178 158 141 134 133 115 104 71 45 33 20 13 359 356 345 340 337 334 335 337 333 335 332 326 328 325 322 321 323 323 320 320 319 319 317 316 313 307 302 299 297 291 285 288 291 295 290 283 281 284 284 284 284 284 283 283 282 282 282 280 279 277 275
223 225 222 217 214 208 205 207 207 207 204 205 211 214 206 219 220 219 215 171 171 163 148 135 139 141 136 115 110 98 67 37 21 4 347 340 335 337 337 335 334 335 335 335 331 329 328 324 320 318 315 315 315 317 317 315 314 313 311 307 303 300 300 297 297 296 296 297 299 302 301 303 299 299 299 293 287 285 284 283 281 281 280 277 273
220 219 215 215 213 211 208 210 210 211 210 216 210 205 213 219 218 216 144 156 163 146 135 134 145 130 114 107 99 84 69 36 6 348 333 336 340 337 339 338 333 329 326 329 328 327 322 325 320 318 315 312 308 314 313 311 311 311 309 307 299 296 294 294 296 298 298 299 303 302 302 299 301 304 304 302 300 296 290 286 283 281 279 278 278
226 218 217 221 221 222 217 214 213 217 216 220 204 209 222 216 193 149 161 162 144 134 132 139 131 118 111 105 88 63 41 9 352 347 345 341 343 337 332 326 320 328 327 322 322 319 319 320 320 315 309 309 306 311 311 312 311 310 308 305 297 296 293 292 294 296 297 298 299 298 298 297 299 300 296 295 290 286 283 278 272 267 267 270 271
216 221 225 222 218 224 226 230 233 229 228 214 218 215 202 162 163 159 163 150 140 134 133 141 128 121 110 91 77 59 27 357 349 345 343 339 335 329 332 331 330 326 326 321 322 319 316 315 313 310 306 305 306 310 312 312 310 309 307 305 299 297 295 293 293 293 291 292 293 293 293 294 297 298 295 296 296 294 289 277 270 267 263 260 256
212 205 222 216 215 215 212 221 225 217 224 206 216 185 171 182 158 155 149 139 135 127 133 131 117 115 99 79 61 37 7 352 345 341 339 331 330 329 325 327 321 315 307 308 303 304 306 308 307 306 303 299 302 310 309 309 307 307 307 305 301 296 293 291 291 291 292 291 292 290 292 292 293 293 295 295 294 293 291 291 289 283 274 266 263
219 194 216 212 211 204 218 217 229 209 218 215 185 162 159 147 147 146 132 129 123 123 135 128 120 115 91 64 50 23 354 345 341 335 327 323 324 321 319 323 311 308 307 306 301 301 303 303 304 302 300 297 297 305 304 305 306 306 307 299 296 294 293 293 290 291 290 289 289 289 290 293 293 293 293 294 294 293 287 281 275 273 271 270 270
219 223 239 233 223 223 249 195 228 173 36 137 148 152 149 147 143 135 126 118 114 132 135 118 115 103 73 63 42 24 348 333 329 320 312 308 309 301 298 307 299 306 300 295 298 298 293 294 296 297 295 296 296 300 303 304 304 304 301 297 294 286 287 289 291 287 288 288 289 291 291 291 289 287 289 288 287 287 284 282 280 279 278 275 274
209 194 207 219 209 198 190 151 152 174 138 112 129 138 138 141 140 130 123 124 127 139 130 123 111 89 74 59 38 14 337 318 310 299 299 298 299 294 295 298 284 284 285 293 293 291 291 287 282 285 294 295 293 297 300 301 300 300 300 291 287 284 283 286 289 290 288 287 285 282 282 285 285 284 286 288 286 284 281 282 286 285 284 284 290
234 236 216 179 152 121 133 163 185 183 141 138 133 123 128 138 140 128 123 140 150 137 128 105 86 75 59 37 17 352 318 304 293 294 290 284 290 296 291 292 288 281 287 288 286 285 288 287 284 284 284 282 287 289 293 297 298 297 298 296 288 288 288 287 281 276 283 272 263 260 271 279 286 286 283 285 285 283 282 280 277 272 273 276 278
209 219 187 169 182 179 187 191 177 154 154 147 133 127 138 144 144 133 159 152 134 115 91 81 78 53 22 357 346 316 294 288 280 284 289 290 289 289 295 290 290 288 282 284 283 284 284 283 281 277 279 280 276 285 287 293 294 296 297 298 289 282 281 281 280 277 268 266 261 258 248 269 280 283 283 283 285 285 283 281 276 272 269 276 281
248 196 164 170 166 158 130 134 159 161 159 151 140 142 149 152 146 172 166 130 112 100 92 85 72 40 322 308 290 287 276 275 283 287 292 285 277 277 282 287 284 286 287 284 286 286 285 285 281 276 274 277 279 283 287 289 292 293 294 294 294 283 283 282 281 273 273 270 267 264 260 276 281 282 282 282 282 282 279 275 271 274 279 282 284
199 200 215 170 167 180 188 174 164 163 155 155 140 147 157 155 172 188 139 122 110 106 105 114 121 235 265 269 271 270 274 275 277 273 277 282 284 284 279 277 282 284 282 286 287 288 289 291 290 282 275 275 276 275 281 284 287 291 294 296 296 295 292 289 283 280 275 272 268 270 270 278 280 280 280 280 279 278 281 281 280 279 279 282 284
237 213 188 181 182 180 166 156 158 157 152 152 150 152 162 167 187 136 129 113 111 110 116 129 207 254 270 275 265 268 268 269 269 276 274 279 284 278 277 272 275 277 285 287 286 289 291 292 298 297 286 276 273 272 272 278 284 290 298 300 297 293 293 288 285 282 283 280 282 279 275 276 279 279 277 277 282 287 292 291 292 292 292 292 292
217 214 188 181 185 180 166 161 166 156 148 146 146 149 158 178 178 136 135 134 132 131 138 200 243 259 264 261 272 267 267 266 265 264 273 274 278 274 280 267 267 277 276 282 286 284 286 292 293 292 293 287 276 267 267 268 281 292 296 296 294 293 292 291 289 282 274 274 276 279 280 281 284 288 293 297 298 295 290 287 286 285 285 285 283
219 195 187 190 160 150 162 171 173 172 155 148 142 145 161 196 147 143 139 142 142 145 178 221 240 250 252 260 270 273 265 261 262 255 252 257 264 273 272 279 271 270 269 272 282 284 282 283 283 286 288 289 283 279 279 279 279 281 282 286 288 287 288 287 285 283 284 285 286 287 287 290 292 291 288 283 276 276 278 281 283 286 288 280 271
209 209 160 156 158 165 181 180 184 188 168 158 146 140 146 136 150 147 146 142 147 166 203 224 239 246 258 254 256 265 270 264 260 258 252 255 258 263 266 270 266 269 270 265 270 277 280 276 280 286 289 287 285 286 288 288 286 288 284 281 281 276 276 279 278 274 276 277 274 275 272 272 274 277 278 280 283 285 286 285 284 280 273 270 265
206 169 172 161 174 185 188 185 192 182 172 163 160 164 156 146 149 147 142 139 166 185 204 225 234 235 248 247 250 260 263 269 261 258 267 268 259 253 259 259 258 259 266 270 264 267 271 275 273 275 281 285 290 288 283 286 285 279 281 282 276 280 284 273 275 272 266 266 266 269 272 274 274 271 272 264 263 264 269 274 272 269 265 263 263
178 185 174 184 187 190 190 186 187 167 169 168 178 177 161 156 162 152 145 158 191 206 212 226 235 237 247 245 243 251 259 264 273 262 251 248 260 263 261 265 248 235 238 251 257 242 243 246 253 275 287 268 288 291 288 299 300 305 307 304 300 296 293 290 292 297 296 291 281 275 254 264 259 268 269 270 272 269 264 261 262 262 261 261 262
190 158 184 181 182 180 175 182 178 166 169 174 185 190 182 173 167 163 158 176 197 204 213 233 234 235 244 249 258 258 258 262 265 276 277 271 251 266 265 258 261 266 267 269 275 277 282 287 283 268 276 293 294 295 303 306 307 306 306 307 309 309 307 305 307 311 315 312 307 300 300 299 298 299 293 286 282 279 280 276 274 276 276 271 263
168 157 178 184 177 168 163 173 175 165 170 176 186 190 184 196 181 185 175 190 186 199 215 230 230 237 237 243 251 262 264 264 265 271 273 282 292 275 278 279 276 278 281 283 286 287 291 293 293 297 299 299 300 303 305 307 310 311 311 311 309 308 310 315 321 323 318 308 307 309 307 302 295 290 285 283 284 284 283 280 277 274 268 269 272